Time,TemperatureF,DewpointF,PressureIn,WindDirection,WindDirectionDegrees,WindSpeedMPH,WindSpeedGustMPH,Humidity,HourlyPrecipIn,Conditions,Clouds,dailyrainin,SoftwareType,DateUTC
2013-06-19 00:00:00,77.2,73.4,30.00,West,268,0.0,0.0,88,0.00,,,0.05,Wunderground v.1.15,2013-06-19 04:00:00,
2013-06-19 00:05:00,77.1,73.6,30.00,West,268,0.0,0.0,89,0.00,,,0.00,Wunderground v.1.15,2013-06-19 04:05:00,
2013-06-19 00:10:00,77.0,73.5,30.00,West,268,0.0,0.0,89,0.00,,,0.00,Wunderground v.1.15,2013-06-19 04:10:00,
2013-06-19 00:15:00,76.8,73.3,30.00,West,268,0.0,0.0,89,0.00,,,0.00,Wunderground v.1.15,2013-06-19 04:15:00,
2013-06-19 00:20:00,76.7,73.5,30.00,West,268,0.0,0.0,90,0.00,,,0.00,Wunderground v.1.15,2013-06-19 04:20:00,
2013-06-19 00:25:00,76.5,73.3,30.00,West,268,0.0,0.0,90,0.00,,,0.00,Wunderground v.1.15,2013-06-19 04:25:00,
2013-06-19 00:30:00,76.4,73.2,30.00,West,268,0.0,0.0,90,0.00,,,0.00,Wunderground v.1.15,2013-06-19 04:30:00,
2013-06-19 00:40:00,76.0,73.2,29.99,West,268,0.0,0.0,91,0.00,,,0.00,Wunderground v.1.15,2013-06-19 04:40:00,
2013-06-19 00:45:00,75.8,73.0,29.99,West,268,0.0,0.0,91,0.00,,,0.00,Wunderground v.1.15,2013-06-19 04:45:00,
2013-06-19 00:55:00,75.6,73.1,29.99,West,268,0.0,0.0,92,0.00,,,0.00,Wunderground v.1.15,2013-06-19 04:55:00,
2013-06-19 01:05:00,75.4,72.9,29.99,West,268,0.0,0.0,92,0.00,,,0.00,Wunderground v.1.15,2013-06-19 05:05:00,
2013-06-19 01:15:00,75.2,73.0,29.98,West,268,0.0,0.0,93,0.00,,,0.00,Wunderground v.1.15,2013-06-19 05:15:00,
2013-06-19 01:20:00,75.2,73.0,29.99,West,268,0.0,0.0,93,0.00,,,0.00,Wunderground v.1.15,2013-06-19 05:20:00,
2013-06-19 01:25:00,75.1,72.9,29.98,West,268,0.0,0.0,93,0.00,,,0.00,Wunderground v.1.15,2013-06-19 05:25:00,
2013-06-19 01:30:00,75.0,72.8,29.98,West,268,0.0,0.0,93,0.00,,,0.00,Wunderground v.1.15,2013-06-19 05:30:00,
2013-06-19 01:40:00,74.9,72.7,29.98,West,268,0.0,0.0,93,0.00,,,0.00,Wunderground v.1.15,2013-06-19 05:40:00,
2013-06-19 01:45:00,74.8,72.6,29.99,West,268,0.0,0.0,93,0.00,,,0.00,Wunderground v.1.15,2013-06-19 05:45:00,
2013-06-19 01:55:00,74.8,73.0,29.99,West,268,0.0,0.0,94,0.00,,,0.00,Wunderground v.1.15,2013-06-19 05:55:00,
2013-06-19 02:05:00,74.8,73.0,29.99,West,268,0.0,0.0,94,0.00,,,0.00,Wunderground v.1.15,2013-06-19 06:05:00,
2013-06-19 02:10:00,74.8,73.0,29.99,West,268,0.0,0.0,94,0.00,,,0.00,Wunderground v.1.15,2013-06-19 06:10:00,
2013-06-19 02:20:00,74.7,72.9,30.00,West,268,0.0,0.0,94,0.00,,,0.00,Wunderground v.1.15,2013-06-19 06:20:00,
2013-06-19 02:25:00,74.7,72.9,29.99,West,268,0.0,0.0,94,0.00,,,0.00,Wunderground v.1.15,2013-06-19 06:25:00,
2013-06-19 02:35:00,74.6,72.8,30.00,West,268,0.0,0.0,94,0.00,,,0.00,Wunderground v.1.15,2013-06-19 06:35:00,
2013-06-19 02:40:00,74.6,72.8,30.00,West,268,0.0,0.0,94,0.00,,,0.00,Wunderground v.1.15,2013-06-19 06:40:00,
2013-06-19 02:50:00,74.6,72.8,30.00,West,268,0.0,0.0,94,0.00,,,0.00,Wunderground v.1.15,2013-06-19 06:50:00,
2013-06-19 03:00:00,74.7,72.9,30.00,SSW,194,0.0,0.0,94,0.00,,,0.00,Wunderground v.1.15,2013-06-19 07:00:00,
2013-06-19 03:05:00,74.8,73.0,30.01,SSW,194,0.0,0.0,94,0.00,,,0.00,Wunderground v.1.15,2013-06-19 07:05:00,
2013-06-19 03:10:00,74.9,73.4,30.01,SSE,158,0.0,0.0,95,0.00,,,0.00,Wunderground v.1.15,2013-06-19 07:10:00,
2013-06-19 03:20:00,75.0,73.5,30.00,South,169,0.0,0.0,95,0.00,,,0.00,Wunderground v.1.15,2013-06-19 07:20:00,
2013-06-19 03:25:00,75.0,73.5,30.00,WSW,257,0.0,0.0,95,0.00,,,0.00,Wunderground v.1.15,2013-06-19 07:25:00,
2013-06-19 03:35:00,74.8,73.0,30.00,WSW,256,0.0,1.0,94,0.00,,,0.00,Wunderground v.1.15,2013-06-19 07:35:00,
2013-06-19 03:45:00,74.7,73.2,30.00,SSE,153,0.0,0.0,95,0.00,,,0.00,Wunderground v.1.15,2013-06-19 07:45:00,
2013-06-19 03:50:00,74.6,73.1,30.00,SSE,153,0.0,0.0,95,0.00,,,0.00,Wunderground v.1.15,2013-06-19 07:50:00,
2013-06-19 03:55:00,74.5,73.0,30.00,SSE,162,0.0,0.0,95,0.00,,,0.00,Wunderground v.1.15,2013-06-19 07:55:00,
2013-06-19 04:05:00,74.4,72.9,30.00,SSE,162,0.0,0.0,95,0.00,,,0.00,Wunderground v.1.15,2013-06-19 08:05:00,
2013-06-19 04:10:00,74.3,72.8,30.00,SSE,162,0.0,0.0,95,0.00,,,0.00,Wunderground v.1.15,2013-06-19 08:10:00,
2013-06-19 04:20:00,74.1,72.6,30.00,SSE,162,0.0,0.0,95,0.00,,,0.00,Wunderground v.1.15,2013-06-19 08:20:00,
2013-06-19 04:30:00,74.0,72.5,30.00,SSE,162,0.0,0.0,95,0.00,,,0.00,Wunderground v.1.15,2013-06-19 08:30:00,
2013-06-19 04:35:00,74.0,72.5,30.00,SSE,162,0.0,0.0,95,0.00,,,0.00,Wunderground v.1.15,2013-06-19 08:35:00,
2013-06-19 04:40:00,74.0,72.5,30.00,SSE,162,0.0,0.0,95,0.00,,,0.00,Wunderground v.1.15,2013-06-19 08:40:00,
2013-06-19 04:50:00,74.0,72.5,30.00,SSE,162,0.0,0.0,95,0.00,,,0.00,Wunderground v.1.15,2013-06-19 08:50:00,
2013-06-19 04:55:00,74.0,72.8,30.00,SSE,162,0.0,0.0,96,0.00,,,0.00,Wunderground v.1.15,2013-06-19 08:55:00,
2013-06-19 05:05:00,73.9,72.7,30.00,SSE,163,0.0,0.0,96,0.00,,,0.00,Wunderground v.1.15,2013-06-19 09:05:00,
2013-06-19 05:10:00,73.9,72.7,30.00,SSE,163,0.0,0.0,96,0.00,,,0.00,Wunderground v.1.15,2013-06-19 09:10:00,
2013-06-19 05:20:00,73.9,72.7,30.00,SSE,161,0.0,0.0,96,0.00,,,0.00,Wunderground v.1.15,2013-06-19 09:20:00,
2013-06-19 05:25:00,74.0,72.8,30.00,SSE,161,0.0,0.0,96,0.00,,,0.00,Wunderground v.1.15,2013-06-19 09:25:00,
2013-06-19 05:30:00,74.0,72.8,30.00,SSE,161,0.0,0.0,96,0.00,,,0.00,Wunderground v.1.15,2013-06-19 09:30:00,
2013-06-19 05:40:00,74.0,72.8,30.00,SE,145,0.0,0.0,96,0.00,,,0.00,Wunderground v.1.15,2013-06-19 09:40:00,
2013-06-19 05:50:00,74.0,72.8,30.00,SE,146,0.0,0.0,96,0.00,,,0.00,Wunderground v.1.15,2013-06-19 09:50:00,
2013-06-19 06:00:00,74.1,72.9,30.01,SE,140,0.0,0.0,96,0.00,,,0.00,Wunderground v.1.15,2013-06-19 10:00:00,
2013-06-19 06:05:00,74.1,72.9,30.00,South,169,0.0,0.0,96,0.00,,,0.00,Wunderground v.1.15,2013-06-19 10:05:00,
2013-06-19 06:15:00,74.1,72.9,30.00,South,172,0.0,0.0,96,0.00,,,0.00,Wunderground v.1.15,2013-06-19 10:15:00,
2013-06-19 06:20:00,74.1,72.9,30.00,South,172,0.0,0.0,96,0.00,,,0.00,Wunderground v.1.15,2013-06-19 10:20:00,
2013-06-19 06:30:00,74.0,72.8,30.00,South,172,0.0,0.0,96,0.00,,,0.00,Wunderground v.1.15,2013-06-19 10:30:00,
2013-06-19 06:35:00,74.0,72.8,30.00,South,172,0.0,0.0,96,0.00,,,0.00,Wunderground v.1.15,2013-06-19 10:35:00,
2013-06-19 06:40:00,74.0,72.8,30.00,South,172,0.0,0.0,96,0.00,,,0.00,Wunderground v.1.15,2013-06-19 10:40:00,
2013-06-19 06:50:00,74.0,72.8,29.99,South,172,0.0,0.0,96,0.00,,,0.00,Wunderground v.1.15,2013-06-19 10:50:00,
2013-06-19 07:00:00,74.1,72.9,29.99,South,172,0.0,0.0,96,0.00,,,0.00,Wunderground v.1.15,2013-06-19 11:00:00,
2013-06-19 07:05:00,74.0,72.8,29.99,South,172,0.0,0.0,96,0.00,,,0.00,Wunderground v.1.15,2013-06-19 11:05:00,
2013-06-19 07:15:00,74.0,72.8,29.99,South,172,0.0,0.0,96,0.00,,,0.00,Wunderground v.1.15,2013-06-19 11:15:00,
2013-06-19 07:20:00,74.2,73.0,30.00,South,172,0.0,0.0,96,0.00,,,0.00,Wunderground v.1.15,2013-06-19 11:20:00,
2013-06-19 07:30:00,74.5,73.3,30.00,SW,227,0.0,0.0,96,0.00,,,0.00,Wunderground v.1.15,2013-06-19 11:30:00,
2013-06-19 07:35:00,74.8,73.3,30.00,SW,227,0.0,0.0,95,0.00,,,0.00,Wunderground v.1.15,2013-06-19 11:35:00,
2013-06-19 07:45:00,75.8,73.9,30.01,SW,227,0.0,0.0,94,0.00,,,0.00,Wunderground v.1.15,2013-06-19 11:45:00,
2013-06-19 07:50:00,76.4,74.2,30.01,SW,227,0.0,0.0,93,0.00,,,0.00,Wunderground v.1.15,2013-06-19 11:50:00,
2013-06-19 08:00:00,77.6,74.8,30.01,SW,227,0.0,0.0,91,0.00,,,0.00,Wunderground v.1.15,2013-06-19 12:00:00,
2013-06-19 08:05:00,78.3,75.1,30.01,SW,215,0.0,0.0,90,0.00,,,0.00,Wunderground v.1.15,2013-06-19 12:05:00,
2013-06-19 08:15:00,79.4,75.9,30.01,WNW,283,0.0,0.0,89,0.00,,,0.00,Wunderground v.1.15,2013-06-19 12:15:00,
2013-06-19 08:20:00,79.9,76.0,30.01,WSW,239,0.0,0.0,88,0.00,,,0.00,Wunderground v.1.15,2013-06-19 12:20:00,
2013-06-19 08:30:00,80.7,76.5,30.01,WSW,254,0.0,0.0,87,0.00,,,0.00,Wunderground v.1.15,2013-06-19 12:30:00,
2013-06-19 08:35:00,81.1,76.9,30.01,WSW,238,1.0,1.0,87,0.00,,,0.00,Wunderground v.1.15,2013-06-19 12:35:00,
2013-06-19 08:45:00,82.0,77.4,30.01,WSW,247,1.0,1.0,86,0.00,,,0.00,Wunderground v.1.15,2013-06-19 12:45:00,
2013-06-19 08:50:00,82.5,77.9,30.01,WSW,247,1.0,1.0,86,0.00,,,0.00,Wunderground v.1.15,2013-06-19 12:50:00,
2013-06-19 09:00:00,83.3,77.6,30.02,SSE,167,1.0,1.0,83,0.00,,,0.00,Wunderground v.1.15,2013-06-19 13:00:00,
2013-06-19 09:10:00,84.1,77.6,30.02,SW,231,1.0,1.0,81,0.00,,,0.00,Wunderground v.1.15,2013-06-19 13:10:00,
2013-06-19 09:15:00,84.4,77.6,30.02,WNW,286,1.0,2.0,80,0.00,,,0.00,Wunderground v.1.15,2013-06-19 13:15:00,
2013-06-19 09:25:00,85.6,77.2,30.02,WNW,291,1.0,1.0,76,0.00,,,0.00,Wunderground v.1.15,2013-06-19 13:25:00,
2013-06-19 09:30:00,85.9,77.5,30.02,West,261,1.0,3.0,76,0.00,,,0.00,Wunderground v.1.15,2013-06-19 13:30:00,
2013-06-19 09:40:00,86.3,77.4,30.02,West,275,2.0,2.0,75,0.00,,,0.00,Wunderground v.1.15,2013-06-19 13:40:00,
2013-06-19 09:45:00,85.9,77.8,30.02,West,272,2.0,2.0,77,0.00,,,0.00,Wunderground v.1.15,2013-06-19 13:45:00,
2013-06-19 09:55:00,86.8,78.3,30.02,SSW,204,1.0,4.0,76,0.00,,,0.00,Wunderground v.1.15,2013-06-19 13:55:00,
2013-06-19 10:00:00,86.8,77.5,30.02,South,175,2.0,2.0,74,0.00,,,0.00,Wunderground v.1.15,2013-06-19 14:00:00,
2013-06-19 10:10:00,87.0,77.7,30.02,SW,230,2.0,2.0,74,0.00,,,0.00,Wunderground v.1.15,2013-06-19 14:10:00,
2013-06-19 10:15:00,86.7,77.4,30.02,West,263,2.0,2.0,74,0.00,,,0.00,Wunderground v.1.15,2013-06-19 14:15:00,
2013-06-19 10:25:00,87.3,78.0,30.02,ESE,120,2.0,3.0,74,0.00,,,0.00,Wunderground v.1.15,2013-06-19 14:25:00,
2013-06-19 10:30:00,87.5,77.8,30.02,SW,223,2.0,2.0,73,0.00,,,0.00,Wunderground v.1.15,2013-06-19 14:30:00,
2013-06-19 10:40:00,87.1,77.8,30.02,SSW,206,1.0,2.0,74,0.00,,,0.00,Wunderground v.1.15,2013-06-19 14:40:00,
2013-06-19 10:45:00,86.9,77.6,30.02,South,171,1.0,2.0,74,0.00,,,0.00,Wunderground v.1.15,2013-06-19 14:45:00,
2013-06-19 10:55:00,86.4,77.5,30.02,WSW,248,1.0,2.0,75,0.00,,,0.00,Wunderground v.1.15,2013-06-19 14:55:00,
2013-06-19 11:05:00,85.5,77.1,30.02,North,355,1.0,1.0,76,0.00,,,0.00,Wunderground v.1.15,2013-06-19 15:05:00,
2013-06-19 11:10:00,85.6,77.6,30.02,SW,225,1.0,1.0,77,0.00,,,0.00,Wunderground v.1.15,2013-06-19 15:10:00,
2013-06-19 11:15:00,86.0,77.1,30.02,SE,139,1.0,3.0,75,0.00,,,0.00,Wunderground v.1.15,2013-06-19 15:15:00,
2013-06-19 11:25:00,86.5,76.8,30.02,SW,219,1.0,2.0,73,0.00,,,0.00,Wunderground v.1.15,2013-06-19 15:25:00,
2013-06-19 11:35:00,86.6,77.3,30.02,WSW,247,1.0,2.0,74,0.00,,,0.00,Wunderground v.1.15,2013-06-19 15:35:00,
2013-06-19 11:40:00,87.3,77.2,30.01,SE,131,1.0,2.0,72,0.00,,,0.00,Wunderground v.1.15,2013-06-19 15:40:00,
2013-06-19 11:50:00,88.2,76.7,30.01,SE,139,2.0,2.0,69,0.00,,,0.00,Wunderground v.1.15,2013-06-19 15:50:00,
2013-06-19 11:55:00,88.0,77.0,30.02,WNW,284,2.0,2.0,70,0.00,,,0.00,Wunderground v.1.15,2013-06-19 15:55:00,
2013-06-19 12:05:00,87.8,77.2,30.02,West,275,1.0,1.0,71,0.00,,,0.00,Wunderground v.1.15,2013-06-19 16:05:00,
2013-06-19 12:15:00,87.5,76.9,30.01,West,264,1.0,1.0,71,0.00,,,0.00,Wunderground v.1.15,2013-06-19 16:15:00,
2013-06-19 12:20:00,86.9,76.4,30.01,West,264,1.0,1.0,71,0.00,,,0.00,Wunderground v.1.15,2013-06-19 16:20:00,
2013-06-19 12:30:00,88.6,76.2,30.01,SSE,167,1.0,1.0,67,0.00,,,0.00,Wunderground v.1.15,2013-06-19 16:30:00,
2013-06-19 12:40:00,90.4,77.9,30.01,WSW,244,1.0,4.0,67,0.00,,,0.00,Wunderground v.1.15,2013-06-19 16:40:00,
2013-06-19 12:45:00,91.0,77.6,30.01,WSW,242,1.0,4.0,65,0.00,,,0.00,Wunderground v.1.15,2013-06-19 16:45:00,
2013-06-19 12:55:00,91.1,77.2,30.00,South,180,2.0,3.0,64,0.00,,,0.00,Wunderground v.1.15,2013-06-19 16:55:00,
2013-06-19 13:00:00,90.6,76.3,30.00,SW,221,2.0,3.0,63,0.00,,,0.00,Wunderground v.1.15,2013-06-19 17:00:00,
2013-06-19 13:10:00,89.5,75.2,30.01,SSW,211,3.0,6.0,63,0.00,,,0.00,Wunderground v.1.15,2013-06-19 17:10:00,
2013-06-19 13:15:00,87.7,76.3,30.01,WSW,254,4.0,6.0,69,0.00,,,0.00,Wunderground v.1.15,2013-06-19 17:15:00,
2013-06-19 13:25:00,86.3,76.2,30.00,SE,136,1.0,3.0,72,0.00,,,0.00,Wunderground v.1.15,2013-06-19 17:25:00,
2013-06-19 13:30:00,87.4,76.0,30.00,SSW,203,1.0,3.0,69,0.00,,,0.00,Wunderground v.1.15,2013-06-19 17:30:00,
2013-06-19 13:40:00,89.5,76.2,30.00,SSE,162,2.0,3.0,65,0.00,,,0.00,Wunderground v.1.15,2013-06-19 17:40:00,
2013-06-19 13:50:00,90.5,76.7,30.00,SSE,162,2.0,3.0,64,0.00,,,0.00,Wunderground v.1.15,2013-06-19 17:50:00,
2013-06-19 13:55:00,91.4,77.5,30.00,WSW,242,3.0,4.0,64,0.00,,,0.00,Wunderground v.1.15,2013-06-19 17:55:00,
2013-06-19 14:05:00,92.2,76.3,29.99,South,188,3.0,4.0,60,0.00,,,0.00,Wunderground v.1.15,2013-06-19 18:05:00,
2013-06-19 14:10:00,92.3,76.4,29.99,SW,219,3.0,3.0,60,0.00,,,0.00,Wunderground v.1.15,2013-06-19 18:10:00,
2013-06-19 14:20:00,92.5,77.1,29.98,SSW,192,2.0,2.0,61,0.00,,,0.00,Wunderground v.1.15,2013-06-19 18:20:00,
2013-06-19 14:25:00,92.4,78.0,29.98,WNW,288,2.0,2.0,63,0.00,,,0.00,Wunderground v.1.15,2013-06-19 18:25:00,
2013-06-19 14:30:00,91.8,76.4,29.98,South,187,2.0,2.0,61,0.00,,,0.00,Wunderground v.1.15,2013-06-19 18:30:00,
2013-06-19 14:40:00,91.3,76.9,29.98,WSW,253,2.0,2.0,63,0.00,,,0.00,Wunderground v.1.15,2013-06-19 18:40:00,
2013-06-19 14:50:00,91.4,78.9,29.98,SW,219,2.0,3.0,67,0.00,,,0.00,Wunderground v.1.15,2013-06-19 18:50:00,
2013-06-19 14:55:00,90.6,77.7,29.98,South,190,2.0,3.0,66,0.00,,,0.00,Wunderground v.1.15,2013-06-19 18:55:00,
2013-06-19 15:00:00,89.7,77.3,29.98,SW,231,3.0,3.0,67,0.00,,,0.00,Wunderground v.1.15,2013-06-19 19:00:00,
2013-06-19 15:10:00,88.2,77.2,29.97,WSW,242,2.0,2.0,70,0.00,,,0.00,Wunderground v.1.15,2013-06-19 19:10:00,
2013-06-19 15:15:00,87.9,76.9,29.97,South,182,3.0,3.0,70,0.00,,,0.00,Wunderground v.1.15,2013-06-19 19:15:00,
2013-06-19 15:25:00,87.5,77.4,29.97,ESE,113,3.0,3.0,72,0.00,,,0.00,Wunderground v.1.15,2013-06-19 19:25:00,
2013-06-19 15:35:00,87.8,77.2,29.96,South,173,1.0,4.0,71,0.00,,,0.00,Wunderground v.1.15,2013-06-19 19:35:00,
2013-06-19 15:40:00,87.7,78.0,29.96,SSE,160,2.0,4.0,73,0.00,,,0.00,Wunderground v.1.15,2013-06-19 19:40:00,
2013-06-19 15:45:00,87.5,77.4,29.96,East,101,3.0,4.0,72,0.00,,,0.00,Wunderground v.1.15,2013-06-19 19:45:00,
2013-06-19 15:55:00,87.4,77.7,29.96,South,171,2.0,2.0,73,0.00,,,0.00,Wunderground v.1.15,2013-06-19 19:55:00,
2013-06-19 16:05:00,87.5,77.4,29.96,SSW,202,2.0,2.0,72,0.00,,,0.00,Wunderground v.1.15,2013-06-19 20:05:00,
2013-06-19 16:10:00,87.8,77.6,29.96,SSE,149,2.0,2.0,72,0.00,,,0.00,Wunderground v.1.15,2013-06-19 20:10:00,
2013-06-19 16:15:00,88.1,77.5,29.96,SSE,150,2.0,2.0,71,0.00,,,0.00,Wunderground v.1.15,2013-06-19 20:15:00,
2013-06-19 16:25:00,88.1,77.1,29.96,SE,138,3.0,3.0,70,0.00,,,0.00,Wunderground v.1.15,2013-06-19 20:25:00,
2013-06-19 16:30:00,88.2,77.2,29.95,WSW,238,3.0,3.0,70,0.00,,,0.00,Wunderground v.1.15,2013-06-19 20:30:00,
2013-06-19 16:40:00,87.9,76.9,29.96,SSW,198,3.0,3.0,70,0.00,,,0.00,Wunderground v.1.15,2013-06-19 20:40:00,
2013-06-19 16:45:00,87.8,77.2,29.95,SE,136,3.0,6.0,71,0.00,,,0.00,Wunderground v.1.15,2013-06-19 20:45:00,
2013-06-19 16:55:00,87.9,77.3,29.95,SSE,163,2.0,4.0,71,0.00,,,0.00,Wunderground v.1.15,2013-06-19 20:55:00,
2013-06-19 17:00:00,87.9,77.3,29.95,SE,139,3.0,4.0,71,0.00,,,0.00,Wunderground v.1.15,2013-06-19 21:00:00,
2013-06-19 17:10:00,88.0,77.8,29.94,SW,219,2.0,5.0,72,0.00,,,0.00,Wunderground v.1.15,2013-06-19 21:10:00,
2013-06-19 17:15:00,88.1,77.5,29.94,West,261,3.0,5.0,71,0.00,,,0.00,Wunderground v.1.15,2013-06-19 21:15:00,
2013-06-19 17:25:00,88.2,78.4,29.94,SW,234,2.0,5.0,73,0.00,,,0.00,Wunderground v.1.15,2013-06-19 21:25:00,
2013-06-19 17:35:00,88.7,77.7,29.94,WSW,244,2.0,5.0,70,0.00,,,0.00,Wunderground v.1.15,2013-06-19 21:35:00,
2013-06-19 17:45:00,88.4,78.2,29.94,SW,236,3.0,4.0,72,0.00,,,0.00,Wunderground v.1.15,2013-06-19 21:45:00,
2013-06-19 17:50:00,88.3,77.7,29.94,WSW,252,3.0,3.0,71,0.00,,,0.00,Wunderground v.1.15,2013-06-19 21:50:00,
2013-06-19 18:00:00,88.3,76.8,29.94,West,267,2.0,3.0,69,0.00,,,0.00,Wunderground v.1.15,2013-06-19 22:00:00,
2013-06-19 18:05:00,88.3,77.3,29.94,West,267,3.0,3.0,70,0.00,,,0.00,Wunderground v.1.15,2013-06-19 22:05:00,
2013-06-19 18:10:00,88.4,76.9,29.95,SW,223,2.0,2.0,69,0.00,,,0.00,Wunderground v.1.15,2013-06-19 22:10:00,
2013-06-19 18:15:00,88.5,76.1,29.95,WNW,286,2.0,3.0,67,0.00,,,0.00,Wunderground v.1.15,2013-06-19 22:15:00,
2013-06-19 18:25:00,88.8,74.1,29.95,South,173,3.0,3.0,62,0.00,,,0.00,Wunderground v.1.15,2013-06-19 22:25:00,
2013-06-19 18:35:00,88.7,75.4,29.96,WSW,255,2.0,2.0,65,0.00,,,0.00,Wunderground v.1.15,2013-06-19 22:35:00,
2013-06-19 18:40:00,88.6,75.3,29.96,WSW,246,1.0,1.0,65,0.00,,,0.00,Wunderground v.1.15,2013-06-19 22:40:00,
2013-06-19 18:50:00,88.4,73.7,29.96,West,277,1.0,1.0,62,0.00,,,0.00,Wunderground v.1.15,2013-06-19 22:50:00,
2013-06-19 19:00:00,88.4,72.2,29.96,West,267,2.0,2.0,59,0.00,,,0.00,Wunderground v.1.15,2013-06-19 23:00:00,
2013-06-19 19:05:00,88.4,72.2,29.96,WSW,255,2.0,2.0,59,0.00,,,0.00,Wunderground v.1.15,2013-06-19 23:05:00,
2013-06-19 19:10:00,88.3,71.6,29.96,SSE,164,2.0,3.0,58,0.00,,,0.00,Wunderground v.1.15,2013-06-19 23:10:00,
2013-06-19 19:15:00,88.2,72.1,29.96,WSW,238,2.0,4.0,59,0.00,,,0.00,Wunderground v.1.15,2013-06-19 23:15:00,
2013-06-19 19:25:00,87.9,72.3,29.96,West,268,2.0,2.0,60,0.00,,,0.00,Wunderground v.1.15,2013-06-19 23:25:00,
2013-06-19 19:35:00,87.4,72.3,29.96,WSW,257,2.0,2.0,61,0.00,,,0.00,Wunderground v.1.15,2013-06-19 23:35:00,
2013-06-19 19:45:00,86.9,72.8,29.97,WSW,254,1.0,2.0,63,0.00,,,0.00,Wunderground v.1.15,2013-06-19 23:45:00,
2013-06-19 19:50:00,86.6,73.4,29.97,West,267,1.0,1.0,65,0.00,,,0.00,Wunderground v.1.15,2013-06-19 23:50:00,
2013-06-19 19:55:00,86.4,73.2,29.97,SW,235,1.0,1.0,65,0.00,,,0.00,Wunderground v.1.15,2013-06-19 23:55:00,
2013-06-19 20:05:00,86.0,73.3,29.96,WSW,257,1.0,3.0,66,0.00,,,0.00,Wunderground v.1.15,2013-06-20 00:05:00,
2013-06-19 20:10:00,85.8,73.1,29.97,WSW,248,1.0,2.0,66,0.00,,,0.00,Wunderground v.1.15,2013-06-20 00:10:00,
2013-06-19 20:15:00,85.6,73.4,29.97,WSW,257,1.0,2.0,67,0.00,,,0.00,Wunderground v.1.15,2013-06-20 00:15:00,
2013-06-19 20:25:00,85.1,72.9,29.97,WSW,256,0.0,1.0,67,0.00,,,0.00,Wunderground v.1.15,2013-06-20 00:25:00,
2013-06-19 20:30:00,84.8,73.1,29.97,WSW,246,1.0,1.0,68,0.00,,,0.00,Wunderground v.1.15,2013-06-20 00:30:00,
2013-06-19 20:40:00,84.1,72.8,29.98,West,265,0.0,0.0,69,0.00,,,0.00,Wunderground v.1.15,2013-06-20 00:40:00,
2013-06-19 20:50:00,83.7,72.9,29.98,West,265,0.0,0.0,70,0.00,,,0.00,Wunderground v.1.15,2013-06-20 00:50:00,
2013-06-19 20:55:00,83.5,72.7,29.98,West,265,0.0,0.0,70,0.00,,,0.00,Wunderground v.1.15,2013-06-20 00:55:00,
2013-06-19 21:05:00,83.1,72.3,29.99,WSW,251,1.0,2.0,70,0.00,,,0.00,Wunderground v.1.15,2013-06-20 01:05:00,
2013-06-19 21:15:00,82.8,72.4,29.99,WSW,252,0.0,0.0,71,0.00,,,0.00,Wunderground v.1.15,2013-06-20 01:15:00,
2013-06-19 21:20:00,82.7,72.3,30.00,WSW,252,0.0,0.0,71,0.00,,,0.00,Wunderground v.1.15,2013-06-20 01:20:00,
2013-06-19 21:25:00,82.5,72.6,30.00,WSW,252,0.0,0.0,72,0.00,,,0.00,Wunderground v.1.15,2013-06-20 01:25:00,
2013-06-19 21:35:00,82.0,72.5,30.00,WSW,252,0.0,0.0,73,0.00,,,0.00,Wunderground v.1.15,2013-06-20 01:35:00,
2013-06-19 21:40:00,81.7,72.6,30.01,WSW,252,0.0,0.0,74,0.00,,,0.00,Wunderground v.1.15,2013-06-20 01:40:00,
2013-06-19 21:45:00,81.4,72.3,30.01,WSW,252,0.0,0.0,74,0.00,,,0.00,Wunderground v.1.15,2013-06-20 01:45:00,
2013-06-19 21:55:00,80.8,72.5,30.01,WSW,252,0.0,0.0,76,0.00,,,0.00,Wunderground v.1.15,2013-06-20 01:55:00,
2013-06-19 22:00:00,80.6,72.7,30.02,WSW,252,0.0,0.0,77,0.00,,,0.00,Wunderground v.1.15,2013-06-20 02:00:00,
2013-06-19 22:10:00,80.1,72.6,30.02,WSW,252,0.0,0.0,78,0.00,,,0.00,Wunderground v.1.15,2013-06-20 02:10:00,
2013-06-19 22:15:00,79.9,72.8,30.02,WSW,252,0.0,0.0,79,0.00,,,0.00,Wunderground v.1.15,2013-06-20 02:15:00,
2013-06-19 22:25:00,79.6,72.9,30.02,WSW,252,0.0,0.0,80,0.00,,,0.00,Wunderground v.1.15,2013-06-20 02:25:00,
2013-06-19 22:30:00,79.4,72.7,30.02,WSW,252,0.0,0.0,80,0.00,,,0.00,Wunderground v.1.15,2013-06-20 02:30:00,
2013-06-19 22:40:00,79.1,72.8,30.02,WSW,252,0.0,0.0,81,0.00,,,0.00,Wunderground v.1.15,2013-06-20 02:40:00,
2013-06-19 22:45:00,78.9,72.6,30.02,WSW,252,0.0,0.0,81,0.00,,,0.00,Wunderground v.1.15,2013-06-20 02:45:00,
2013-06-19 22:55:00,78.5,72.5,30.02,WSW,252,0.0,0.0,82,0.00,,,0.00,Wunderground v.1.15,2013-06-20 02:55:00,
2013-06-19 23:00:00,78.3,72.3,30.02,WSW,252,0.0,0.0,82,0.00,,,0.00,Wunderground v.1.15,2013-06-20 03:00:00,
2013-06-19 23:10:00,77.9,72.3,30.02,WSW,252,0.0,0.0,83,0.00,,,0.00,Wunderground v.1.15,2013-06-20 03:10:00,
2013-06-19 23:15:00,77.7,72.1,30.02,WSW,252,0.0,0.0,83,0.00,,,0.00,Wunderground v.1.15,2013-06-20 03:15:00,
2013-06-19 23:25:00,77.3,72.1,30.02,WSW,252,0.0,0.0,84,0.00,,,0.00,Wunderground v.1.15,2013-06-20 03:25:00,
2013-06-19 23:30:00,77.1,71.9,30.02,WSW,252,0.0,0.0,84,0.00,,,0.00,Wunderground v.1.15,2013-06-20 03:30:00,
2013-06-19 23:40:00,76.9,72.0,30.03,WSW,252,0.0,0.0,85,0.00,,,0.00,Wunderground v.1.15,2013-06-20 03:40:00,
2013-06-19 23:45:00,76.7,71.8,30.03,WSW,252,0.0,0.0,85,0.00,,,0.00,Wunderground v.1.15,2013-06-20 03:45:00,
2013-06-19 23:55:00,76.4,71.9,30.03,WSW,252,0.0,0.0,86,0.00,,,0.00,Wunderground v.1.15,2013-06-20 03:55:00,